Flag for New Zealand Weather past 2 weeks in Christchurch, New Zealand

Now
61 °F

Passing clouds.


Feels Like: 61 °F
Forecast: 62 / 76 °F
Wind: 16 mph from East

Location: Christchurch Airport

Current Time: Jan 26, 2015 at 6:25:25 AM

Latest Report: Jan 26, 2015 at 6:00 AM


Visibility: N/A

Pressure: 29.98 "Hg

Humidity: 88%

Dew point: 57 °F

Location of ChristchurchLocation

Historic Weather in Christchurch — Graph

°F

Christchurch temperature yesterday

Maximum temperature yesterday: 73 °F (at 1:00 PM)
Minimum temperature yesterday: 61 °F (at 12:00 AM)
Average temperature yesterday: 65 °F

Past Weeks' High & Low Weather Summary

 TemperatureHumidityPressure
High90 °F (Jan 18, 3:00 PM)100% (Jan 11, 5:00 AM)30.33 "Hg (Jan 11, 5:00 AM)
Low39 °F (Jan 22, 5:30 AM)15% (Jan 18, 3:00 PM)29.30 "Hg (Jan 18, 3:30 PM)
Average64 °F69%29.87 "Hg
* Reported Jan 11 5:00 AM — Jan 26 5:00 AM, Christchurch, Weather by CustomWeather, © 2014

Note: Actual official high and low records may vary slightly from our data, if they occured in-between our weather recording intervals... More about our weather records

Advertising

Christchurch weather history for previous 24 hours

 ConditionsComfort  
Time TempWeatherWind HumidityBarometerVisibility
5:00 AM
Jan 26
61 °FCool.20 mph88%29.98 "HgN/A
4:30 AM61 °FCool.20 mph88%30.01 "HgN/A
4:00 AM61 °FPassing clouds.16 mph94%30.01 "HgN/A
3:30 AM61 °FPassing clouds.15 mph94%30.01 "HgN/A
3:00 AM61 °FOvercast.14 mph94%30.04 "HgN/A
2:30 AM63 °FPassing clouds.16 mph88%30.04 "HgN/A
2:00 AM63 °FPassing clouds.17 mph88%30.04 "HgN/A
1:30 AM63 °FPassing clouds.16 mph88%30.04 "HgN/A
1:00 AM63 °FPassing clouds.17 mph88%30.07 "HgN/A
12:30 AM63 °FPassing clouds.18 mph83%30.07 "HgN/A
12:00 AM63 °FMild.21 mph83%30.07 "HgN/A
11:30 PM
Jan 25
63 °FMild.18 mph83%30.07 "HgN/A
11:00 PM63 °FMild.22 mph83%30.07 "HgN/A
10:30 PM63 °FMild.18 mph83%30.07 "HgN/A
10:00 PM63 °FMild.21 mph83%30.07 "HgN/A
9:30 PM63 °FMild.21 mph83%30.07 "HgN/A
9:00 PM64 °FMild.21 mph78%30.07 "HgN/A
8:30 PM64 °FMild.21 mph78%30.07 "HgN/A
8:00 PM64 °FMild.21 mph78%30.07 "HgN/A
7:30 PM66 °FMild.20 mph73%30.07 "HgN/A
7:00 PM66 °FMild.22 mph73%30.07 "HgN/A
6:30 PM68 °FMild.21 mph73%30.09 "HgN/A
6:00 PM70 °FMild.24 mph69%30.09 "HgN/A
5:30 PM72 °FMild.24 mph65%30.09 "HgN/A
5:00 PM72 °FMild.23 mph65%30.09 "HgN/A
4:30 PM72 °FMild.24 mph65%30.09 "HgN/A
3:30 PM72 °FMild.22 mph61%30.12 "HgN/A
3:00 PM73 °FMild.21 mph61%30.12 "HgN/A
2:30 PM73 °FMild.21 mph61%30.12 "HgN/A
2:00 PM70 °FPassing clouds.20 mph69%30.15 "HgN/A
1:30 PM72 °FMild.18 mph65%30.15 "HgN/A
1:00 PM73 °FMild.17 mph57%30.15 "HgN/A
12:30 PM72 °FMild.17 mph61%30.15 "HgN/A
12:00 PM70 °FPassing clouds.14 mph64%30.18 "HgN/A
11:30 AM70 °FMild.15 mph64%30.18 "HgN/A
11:00 AM68 °FPartly sunny.14 mph69%30.18 "HgN/A
10:30 AM68 °FPartly sunny.13 mph69%30.18 "HgN/A
10:00 AM66 °FOvercast.13 mph73%30.18 "HgN/A
9:30 AM64 °FOvercast.13 mph78%30.18 "HgN/A
9:00 AM64 °FOvercast.12 mph78%30.18 "HgN/A
8:30 AM63 °FOvercast.10 mph83%30.18 "HgN/A
8:00 AM63 °FOvercast.9 mph83%30.18 "HgN/A
7:30 AM63 °FOvercast.9 mph83%30.18 "HgN/A
7:00 AM63 °FOvercast.8 mph83%30.18 "HgN/A
6:30 AM61 °FPartly sunny.8 mph88%30.18 "HgN/A
6:00 AM61 °FPassing clouds.8 mph88%30.15 "HgN/A
Weather by CustomWeather, © 2014

See weather overviewHow to use our weather pages